Location: Newark
(41.0400°S, 62.7845°W)
Time: 09:06:09
(UTC+00:00)

Vanguard 2 Rocket - Pass Details

Date: 04 December 2021
Orbit: 553 x 3325 km, 32.9° (Epoch: 24 January)

Event Time Altitude Azimuth Distance (km) Brightness Sun altitude
Rises 10:17:49 0° 292° (WNW) 7,225 10.9 17.4°
Reaches altitude 10° 10:23:06 10° 295° (WNW) 6,026 10.5 18.4°
Maximum altitude 10:40:14 58° 6° (N) 2,582 9.5 21.5°
Drops below altitude 10° 10:50:31 10° 81° (E) 3,783 11.6 23.4°
Sets 10:53:03 0° 85° (E) 4,469 11.7 23.9°
